DECAYED

STARLINK-6228, 56543 (Decayed)

Orbit data source: Space-Track

STARLINK-6228, 56543 was a payload satellite owned by SpaceX/Seattle (US) in LEO that was launched on Sun, 14 May 2023 UTC via an FALCON 9 launch vehicle from the Air Force Eastern Test Range (AFETR). Payload-class satellites include a variety of spacecraft equipped with specific instruments for various scientific and technological missions. These include communications satellites like Starlink; space stations such as the ISS; scientific satellites like the Hubble; Earth observation satellites from companies like Planet Labs, Umbra, and HawkEye 360; GPS; miniature CubeSats for education and research; and military/defense satellites.

Not visible in the next 10 days
Identifier
56543, 2023-065AS
Orbit
Decayed
Country
Flag of USUS
Related business
Manufacturer
SpaceX/Seattle
Mission
Decayed Commercial Communications
Bus & Motor
STARLINK, Unknown motor
Mass
305 kg wet, ~290 kg dry
Launch date (UTC)
2023-05-14 (3 years ago)
Launch vehicle
FALCON 9
Launch site
Air Force Eastern Test Range (AFETR)
Object type
Payload
Rocket body
Debris
Shape & HBR
Box + 1 Pan, 10.1 m
Radar Cross Section
11.087 m², Large (>1 m²)

Expand to show TLE details & history
Last TLE update: 1 year ago

TLE from 1 year ago
0 STARLINK-6228
1 56543U 23065AS  25122.26399201  .02088948  89186-5  90364-3 0  9994
2 56543  42.9960  64.3783 0005338 231.9818 243.6592 16.21647006109438
Epoch: 2025-05-02T06:20Z
TLE epoch observation values (Epoch: 2025-05-02T06:20:08.909Z)
Latitude
38.10632°
Longitude
-127.83791°
Altitude
218.66 km
Speed
7.78 km/s
True Right ascension
12h 30m 29s
True Declination
37° 55' 33"
Sunlit
Object was in full shadow at epoch
Visualization orbit readout
Latitude
Unknown
Longitude
Unknown
Altitude
Unknown
Speed
Unknown
Apparent Right ascension
Unknown
Apparent Declination
Unknown
Sunlit
N/A
Visualization observer readout
Local Sidereal Time
21:24:50
Azimuth
Unknown
Elevation
Unknown
Doppler factor
Unknown
Orbital elements
Apogee altitude
220.629 km
Perigee altitude
213.588 km
Semi-major axis
6,595.246 km
Eccentricity
0.00053
Inclination
42.996°
RAAN
64.3783°
Arg. of periapsis
231.9818°
True anomaly
243.6044°
Mean anomaly
243.6592°
Eccentric anomaly
243.6318°
Mean motion
4.05225 °/min
Orbital period
88.84 mins
BSTAR
0.00090364
Loading maneuver chart data...
Computing Atmospheric mass density...
Loading historical data...
Loading historical data...
Loading historical data...
Loading historical data...
Loading historical data...
Loading historical data...
Loading historical data...

Documentation

Showing up to 5 results
|